This is the latest recevied weather packets stored in our database for station/object DG3RAP-11. If no packets are shown the sender has not sent any weather packets the latest 10 day(s).
| Time | Temp. | Humidity | Pressure | Rain* | Wind** | Luminosity | Snow |
|---|---|---|---|---|---|---|---|
| 1777829763 | 23.33° C | 35% | 1011.1 hPa | 0 mm | - | - | - |
| 1777829223 | 23.33° C | 36% | 1011.1 hPa | 0 mm | - | - | - |
| 1777828683 | 23.89° C | 36% | 1011.1 hPa | 0 mm | - | - | - |
| 1777828143 | 24.44° C | 37% | 1011.3 hPa | 0 mm | - | - | - |
| 1777827603 | 24.44° C | 38% | 1011.3 hPa | 0 mm | - | - | - |
| 1777827243 | 24.44° C | 32% | 1011.2 hPa | 0 mm | - | - | - |
| 1777826703 | 23.89° C | 32% | 1011.2 hPa | 0 mm | - | - | - |
| 1777826163 | 24.44° C | 36% | 1011.5 hPa | 0 mm | - | - | - |
| 1777825623 | 24.44° C | 30% | 1011.4 hPa | 0 mm | - | - | - |
| 1777825083 | 25° C | 32% | 1011.3 hPa | 0 mm | - | - | - |
| 1777824543 | 26.11° C | 35% | 1011.3 hPa | 0 mm | - | - | - |
| 1777823643 | 27.22° C | 28% | 1011.3 hPa | 0 mm | - | - | - |
| 1777823103 | 26.11° C | 29% | 1011.5 hPa | 0 mm | - | - | - |
| 1777822563 | 27.22° C | 28% | 1011.5 hPa | 0 mm | - | - | - |
| 1777822023 | 26.11° C | 28% | 1011.3 hPa | 0 mm | - | - | - |
| 1777821483 | 26.67° C | 28% | 1011.5 hPa | 0 mm | - | - | - |
| 1777820943 | 26.67° C | 28% | 1011.7 hPa | 0 mm | - | - | - |
| 1777820403 | 26.11° C | 29% | 1011.7 hPa | 0 mm | - | - | - |
| 1777820043 | 26.67° C | 27% | 1011.9 hPa | 0 mm | - | - | - |
| 1777819503 | 27.78° C | 27% | 1011.7 hPa | 0 mm | - | - | - |
| 1777818963 | 26.11° C | 28% | 1011.8 hPa | 0 mm | - | - | - |
| 1777818423 | 27.22° C | 28% | 1012 hPa | 0 mm | - | - | - |
| 1777817883 | 27.22° C | 26% | 1012.1 hPa | 0 mm | - | - | - |
| 1777817343 | 27.78° C | 28% | 1012 hPa | 0 mm | - | - | - |
| 1777816803 | 25.56° C | 29% | 1012.3 hPa | 0 mm | - | - | - |
* Rain latest hour (hover to see other rain measurements)
** Current wind speed in m/s (hover to see current wind gust speed)